Regional Weather Roundup
Issued by NWS

Home | Current Version | Previous Version | Text Only | Print | Product List | Glossary On
Versions: 1 2 3 4 5 6 7 8 9 10 11 12 13 14 15 16 17 18 19 20 21 22 23 24 25 26 27 28 29 30 31 32 33 34 35 36 37 38 39 40 41 42 43 44 45 46 47 48 49 50
000
ASUS43 KMKX 021600
RWRWI

WISCONSIN REGIONAL WEATHER ROUNDUP
NATIONAL WEATHER SERVICE MILWAUKEE/SULLIVAN WI
1100 AM CDT TUE SEP 02 2014

NOTE: "FAIR" INDICATES FEW OR NO CLOUDS BELOW 12,000 FEET WITH NO
SIGNIFICANT WEATHER AND/OR OBSTRUCTIONS TO VISIBILITY.

WIZ001-002-006>008-014>016-023>028-021700-
NORTHWEST WISCONSIN

CITY           SKY/WX    TMP DP  RH WIND       PRES   REMARKS
SUPERIOR ARPT  SUNNY     68  58  69 SW7       29.84S
ASHLAND        SUNNY     70  55  59 W7        29.85R
HAYWARD        SUNNY     67  55  65 SW5       29.88R
SIREN          SUNNY     68  55  63 SW5       29.88S
RICE LAKE      SUNNY     68  55  62 W6        29.90S
LADYSMITH      SUNNY     67  56  67 W3        29.90S
EAU CLAIRE     NOT AVBL
MENOMONIE      SUNNY     71  57  61 W3        29.88S
NEW RICHMOND   SUNNY     69  57  66 W6        29.90R
OSCEOLA        SUNNY     68  58  69 SW5       29.92S
$$

WIZ003>005-009-010-017-018-021700-
NORTH CENTRAL WISCONSIN

CITY           SKY/WX    TMP DP  RH WIND       PRES   REMARKS
WOODRUFF       PTSUNNY   64  56  73 NW3       29.88R
RHINELANDER    PTSUNNY   65  55  70 W8        29.89R
EAGLE RIVER    PTSUNNY   63  54  72 W8        29.87R
LAND O LAKES   PTSUNNY   64  55  71 W6        29.87R
PHILLIPS       SUNNY     64  55  72 W5        29.88R
TOMAHAWK       PTSUNNY   65  56  72 W7        29.89S
MEDFORD        MOSUNNY   64  58  80 NW7       29.89S
MERRILL        PTSUNNY   64  61  88 W6        29.88S
$$

WIZ029-030-035-036-043>047-021700-
CENTRAL WISCONSIN

CITY           SKY/WX    TMP DP  RH WIND       PRES   REMARKS
WAUSAU         CLOUDY    67  59  75 W6        29.87S
MOSINEE        NOT AVBL
MARSHFIELD     MOSUNNY   70  61  73 W10       29.89S
STEVENS POINT  CLOUDY    64  58  81 SW12      29.90R
WAUPACA        CLOUDY    71  60  68 W6        29.89S
WAUTOMA        NOT AVBL
WISC RAPIDS    PTSUNNY   70  58  65 VRB6      29.91R
CAMP DOUGLAS   NOT AVBL
$$

WIZ011>013-019>022-031-037>040-048>050-021700-
NORTHEAST WISCONSIN

CITY           SKY/WX    TMP DP  RH WIND       PRES   REMARKS
ANTIGO         PTSUNNY   62  57  85 W8        29.89R
STURGEON BAY   CLOUDY    66  57  72 W15       29.90R
GREEN BAY      CLOUDY    68  61  78 NW9       29.90R
MANITOWOC      NOT AVBL
APPLETON       PTSUNNY   68  63  83 W13       29.91R
CLINTONVILLE   LGT RAIN  63  59  88 CALM      29.88F
OSHKOSH        CLOUDY    69  62  78 W6        29.89R
$$

WIZ032>034-041-042-053>061-021700-
SOUTHWEST WISCONSIN

CITY           SKY/WX    TMP DP  RH WIND       PRES   REMARKS
LA CROSSE      SUNNY     72  57  59 VRB6      29.90F
SPARTA         MOSUNNY   69  55  62 W7G18     29.92R
VIROQUA        FAIR      70  58  64 W8        29.91F
BOSCOBEL       SUNNY     74  59  59 NW6       29.91F
PRAIRIE DU CHI SUNNY     70  58  65 SW3       29.91S
PLATTEVILLE    FAIR      67  61  80 CALM      29.93F
$$

WIZ056-057-062-063-064-067-068-021700-
SOUTH CENTRAL WISCONSIN

CITY           SKY/WX    TMP DP  RH WIND       PRES   REMARKS
BARABOO/DELLS  PTSUNNY   67  56  67 NW9       29.91S
LONE ROCK      NOT AVBL
WATERTOWN      CLOUDY    70  64  81 SW6       29.90S
MADISON        CLOUDY    69  59  70 NW6       29.91S
MIDDLETON      CLOUDY    68  60  75 W8        29.92S
MONROE         PTSUNNY   68  59  73 SW12      29.93F
JANESVILLE     PTSUNNY   72  61  68 W12       29.90F
$$

WIZ051-052-058>065-066-070>072-021700-
SOUTHEAST WISCONSIN

CITY           SKY/WX    TMP DP  RH WIND       PRES   REMARKS
MILWAUKEE      PTSUNNY   76  58  53 SW7       29.89F
WAUKESHA       MOSUNNY   72  61  68 W7        29.91F
MILWAUKEE/TIMM SUNNY     73  57  56 SW7       29.90S
RACINE         MOSUNNY   77  60  55 W6        29.91S
BURLINGTON     MOSUNNY   74  60  63 W6        29.91S
KENOSHA        MOSUNNY   76  60  57 W8        29.91S
FOND DU LAC    CLOUDY    69  62  78 MISG      29.90R
SHEBOYGAN      CLOUDY    72  60  66 SW8       29.89R
WEST BEND      CLOUDY    70  57  64 SW6       29.89S
JUNEAU         CLOUDY    67  62  85 SW7       29.91S
$$

LSZ147-162-021700-
LAKE SUPERIOR

STATION/POSITION TIME  TEMP    WIND        PRES    WAVE
                       AIR SEA DIR/SP/G            HT/PER
                 (UTC) (F)     (DEG/KT/KT) (MB)    (FT/S)
W MID LAKE BUOY  1450   59 57  240/ 10/ 12 1008.8R   1/ 4
DEVILS ISLAND    1500   61     240/ 17/ 19 1009.5R
PORT WING        1500   65     210/  6/  8 1010.2
SAXON HARBOR     1500   67     190/  3/  5 1010.2
$$

LMZ867-665-643>646-021700-
LAKE MICHIGAN

STATION/POSITION TIME  TEMP    WIND        PRES    WAVE
                       AIR SEA DIR/SP/G            HT/PER
                 (UTC) (F)     (DEG/KT/KT) (MB)    (FT/S)
N MID LAKE BUOY  1450   64 65  270/ 10/ 10 1010.5R   1/ 5
NORTHPORT PIER   1500   71     260/  1/  3 1010.5S
SISTER BAY       1526   76     280/  7/  8   N/A
KEWAUNEE LAKESHO 1500   69     260/  5/  7 1010.4S
SHEBOYGAN LAKESH 1500   70 50  250/  7/  8 1011.7R
ATWATER BUOY     1500   68     150/  4/  4 1013.4R
MILWAUKEE LAKESH 1500   72     180/  4/  5   N/A
S MID LAKE BUOY  1450   69 70  300/  2/  4 1012.3R   1
KENOSHA   LAKESH 1500   72      90/  2/  2 1012.2S
$$

TC  - TEMPERATURE IN CELSIUS
VSB - VISIBILITY IN STATUTE MILES
WCI - WIND CHILL INDEX
HX  - HEAT INDEX




USA.gov is the U.S. government's official web portal to all federal, state and local government web resources and services.